Location: Finkenwalde
(53.3770°N, 14.6418°E)
Time: 02:19:59
(UTC+00:00)

Cosmos 2360 Rocket - Pass Details

Date: 05 February 2023
Orbit: 832 x 846 km, 71.0° (Epoch: 20 March)

Event Time Altitude Azimuth Distance (km) Brightness Sun altitude
Rises 19:18:28 0° 246° (WSW) 3,388 6.0 -30.8°
Reaches altitude 10° 19:21:10 10° 257° (WSW) 2,459 5.3 -31.2°
Maximum altitude 19:26:11 32° 320° (NW) 1,419 3.7 -31.9°
Enters shadow 19:28:34 23° 1° (N) 1,714 3.9 -32.3°
